loading
DOY 175 | 2024-06-23T17:48:51Z

THOR ABLESTAR DEB, 652

Orbit data source: Space-Track

THOR ABLESTAR DEB, 652 is space debris in LEO originally from a launch on Thu, 29 Jun 1961 UTC launched from the Air Force Eastern Test Range (AFETR). Debris objects in space refer to the collection of defunct objects orbiting the Earth. Examples of debris include non-operational satellites, rocket bodies, and fragments generated from explosions, collisions, or faulty payload assembly.

Loading next visibility...
Loading greatness...
THOR ABLESTAR DEB details
NORAD ID652
COSPAR ID
1961-015HD
Orbit
LEO
Last TLE update20 hours ago
Origin
Flag of USUSAF SSD (US)
ManufacturerUnknown
BusUnknown
MotorUnknown
MassWet unknown, Dry mass unknown
Launch date (UTC)
1961-06-29 (63 years ago)
Launch vehicleUnknown
Launch site
Air Force Eastern Test Range (AFETR)
Object type
Payload
Rocket body
Debris
Radar Cross SectionSmall (<0.1 m²)
Predictive object data (real-time)
Latitude-2.48168°
Longitude93.26741°
Altitude800.441 km
Speed7.478 km/s
Apparent Right ascension20h 25m 59s
Apparent Declination-25° 48' 08"
Sunlit
Object is in daylight
Predictive observer data (real-time)
Local Sidereal Time04:57:56
Azimuth271.754° WNW
Elevation-44.774°
Doppler factor1
Orbital elements
Apogee897.774 km
Perigee791.943 km
Semi-major axis7,222.996 km
Eccentricity0.007326
Inclination66.6981°
RAAN160.075°
Arg. of periapsis159.2732°
True anomaly200.83556°
Mean anomaly201.1357°
Mean motion3.53563 °/min
BSTAR0.0011167
Period101.82 mins
Definitive object data (Epoch: 2024-06-22T22:16:51.453Z)
Latitude0.00004°
Longitude-85.72404°
Altitude897.985 km
Speed7.378 km/s
True Right ascension10h 40m 18s
True Declination0° 00' 00"
Sunlit
Object was in daylight at TLE epoch
TLE from 20 hours ago
0 THOR ABLESTAR DEB
1 00652U 61015HD  24174.92837330  .00002089  00000-0  11167-2 0  9996
2 00652  66.6981 160.0750 0073260 159.2732 201.1357 14.13778303191262
Epoch: 2024-06-22T22:16Z
No data available

THOR ABLESTAR DEB Visibility forecast

Observer location: 39.9160978°, -105.1181434, 0m alt.

THOR ABLESTAR DEB is not visible in the next 10 days
Span
Click to sort rows by Start time (UTC) header in descending order
Start Az.
Max El. time (UTC)
Max El. Az.
Max El.
End time (UTC)
End Az.